owner,sensor,date,latitude,longitude,vertical_datum,wind_speed,wind_to_direction,wind_speed_of_gust,qcFlag 
ADCP,ioos:station:wmo:42395:2,2017-10-01T00:40:00Z,26.4040,-90.7920,3.0,7.0,50.0,9.0, 
ADCP,ioos:station:wmo:42395:2,2017-10-01T01:40:00Z,26.4040,-90.7920,3.0,8.0,60.0,9.0, 
ADCP,ioos:station:wmo:42395:2,2017-10-01T02:40:00Z,26.4040,-90.7920,3.0,7.0,70.0,9.0, 
ADCP,ioos:station:wmo:42395:2,2017-10-01T04:20:00Z,26.4040,-90.7920,3.0,6.0,70.0,8.0, 
ADCP,ioos:station:wmo:42395:2,2017-10-01T05:20:00Z,26.4040,-90.7920,3.0,6.0,60.0,7.0, 
ADCP,ioos:station:wmo:42395:2,2017-10-01T06:20:00Z,26.4040,-90.7920,3.0,7.0,70.0,8.0, 
ADCP,ioos:station:wmo:42395:2,2017-10-01T07:40:00Z,26.4040,-90.7920,3.0,7.0,60.0,8.0, 
ADCP,ioos:station:wmo:42395:2,2017-10-01T08:40:00Z,26.4040,-90.7920,3.0,6.0,50.0,8.0, 
ADCP,ioos:station:wmo:42395:2,2017-10-01T10:00:00Z,26.4040,-90.7920,3.0,7.0,40.0,9.0, 
ADCP,ioos:station:wmo:42395:2,2017-10-01T11:20:00Z,26.4040,-90.7920,3.0,7.0,40.0,8.0, 
ADCP,ioos:station:wmo:42395:2,2017-10-01T12:20:00Z,26.4040,-90.7920,3.0,7.0,50.0,9.0, 
ADCP,ioos:station:wmo:42395:2,2017-10-01T13:20:00Z,26.4040,-90.7920,3.0,6.0,60.0,8.0, 
ADCP,ioos:station:wmo:42395:2,2017-10-01T14:40:00Z,26.4040,-90.7920,3.0,6.0,40.0,8.0, 
ADCP,ioos:station:wmo:42395:2,2017-10-01T15:40:00Z,26.4040,-90.7920,3.0,7.0,60.0,8.0, 
ADCP,ioos:station:wmo:42395:2,2017-10-01T17:20:00Z,26.4040,-90.7920,3.0,7.0,60.0,8.0, 
ADCP,ioos:station:wmo:42395:2,2017-10-01T18:20:00Z,26.4040,-90.7920,3.0,5.0,40.0,6.0, 
ADCP,ioos:station:wmo:42395:2,2017-10-01T19:20:00Z,26.4040,-90.7920,3.0,6.0,50.0,7.0, 
ADCP,ioos:station:wmo:42395:2,2017-10-01T20:20:00Z,26.4040,-90.7920,3.0,5.0,40.0,6.0, 
ADCP,ioos:station:wmo:42395:2,2017-10-01T21:40:00Z,26.4040,-90.7920,3.0,7.1,39.0,8.7, 
ADCP,ioos:station:wmo:42395:2,2017-10-01T22:40:00Z,26.4040,-90.7920,3.0,10.0,40.0,12.0, 
ADCP,ioos:station:wmo:42395:2,2017-10-02T00:20:00Z,26.4040,-90.7920,3.0,7.0,40.0,8.0, 
ADCP,ioos:station:wmo:42395:2,2017-10-02T01:20:00Z,26.4040,-90.7920,3.0,5.0,40.0,6.0, 
ADCP,ioos:station:wmo:42395:2,2017-10-02T02:20:00Z,26.4040,-90.7920,3.0,4.0,350.0,6.0, 
ADCP,ioos:station:wmo:42395:2,2017-10-02T03:20:00Z,26.4040,-90.7920,3.0,8.0,30.0,10.0, 
ADCP,ioos:station:wmo:42395:2,2017-10-02T04:40:00Z,26.4040,-90.7920,3.0,7.0,20.0,9.0, 
ADCP,ioos:station:wmo:42395:2,2017-10-02T05:40:00Z,26.4040,-90.7920,3.0,3.0,20.0,5.0, 
ADCP,ioos:station:wmo:42395:2,2017-10-02T07:20:00Z,26.4040,-90.7920,3.0,6.0,150.0,8.0, 
ADCP,ioos:station:wmo:42395:2,2017-10-02T08:20:00Z,26.4040,-90.7920,3.0,8.0,140.0,10.0, 
ADCP,ioos:station:wmo:42395:2,2017-10-02T09:20:00Z,26.4040,-90.7920,3.0,8.0,130.0,10.0, 
ADCP,ioos:station:wmo:42395:2,2017-10-02T10:20:00Z,26.4040,-90.7920,3.0,8.0,120.0,10.0, 
ADCP,ioos:station:wmo:42395:2,2017-10-02T11:40:00Z,26.4040,-90.7920,3.0,8.0,120.0,10.0, 
ADCP,ioos:station:wmo:42395:2,2017-10-02T12:40:00Z,26.4040,-90.7920,3.0,8.0,120.0,11.0, 
ADCP,ioos:station:wmo:42395:2,2017-10-02T14:20:00Z,26.4040,-90.7920,3.0,8.0,110.0,10.0, 
ADCP,ioos:station:wmo:42395:2,2017-10-02T15:20:00Z,26.4040,-90.7920,3.0,9.0,110.0,11.0, 
ADCP,ioos:station:wmo:42395:2,2017-10-02T16:20:00Z,26.4040,-90.7920,3.0,9.0,120.0,11.0, 
ADCP,ioos:station:wmo:42395:2,2017-10-02T17:40:00Z,26.4040,-90.7920,3.0,9.0,120.0,11.0, 
ADCP,ioos:station:wmo:42395:2,2017-10-02T18:40:00Z,26.4040,-90.7920,3.0,9.0,110.0,12.0, 
ADCP,ioos:station:wmo:42395:2,2017-10-02T20:00:00Z,26.4040,-90.7920,3.0,8.0,120.0,10.0, 
ADCP,ioos:station:wmo:42395:2,2017-10-02T21:20:00Z,26.4040,-90.7920,3.0,7.0,110.0,10.0, 
ADCP,ioos:station:wmo:42395:2,2017-10-02T22:20:00Z,26.4040,-90.7920,3.0,8.0,100.0,10.0, 
ADCP,ioos:station:wmo:42395:2,2017-10-02T23:20:00Z,26.4040,-90.7920,3.0,8.0,90.0,10.0, 
ADCP,ioos:station:wmo:42395:2,2017-10-03T00:40:00Z,26.4040,-90.7920,3.0,9.0,90.0,11.0, 
ADCP,ioos:station:wmo:42395:2,2017-10-03T01:40:00Z,26.4040,-90.7920,3.0,10.0,90.0,13.0, 
ADCP,ioos:station:wmo:42395:2,2017-10-03T03:00:00Z,26.4040,-90.7920,3.0,12.0,90.0,15.0, 
ADCP,ioos:station:wmo:42395:2,2017-10-03T04:20:00Z,26.4040,-90.7920,3.0,10.0,90.0,13.0, 
ADCP,ioos:station:wmo:42395:2,2017-10-03T05:20:00Z,26.4040,-90.7920,3.0,11.0,100.0,13.0, 
ADCP,ioos:station:wmo:42395:2,2017-10-03T06:20:00Z,26.4040,-90.7920,3.0,10.0,100.0,13.0, 
ADCP,ioos:station:wmo:42395:2,2017-10-03T07:40:00Z,26.4040,-90.7920,3.0,11.0,100.0,14.0, 
ADCP,ioos:station:wmo:42395:2,2017-10-03T08:40:00Z,26.4040,-90.7920,3.0,10.3,91.0,13.9, 
ADCP,ioos:station:wmo:42395:2,2017-10-03T10:20:00Z,26.4040,-90.7920,3.0,10.0,100.0,13.0, 
ADCP,ioos:station:wmo:42395:2,2017-10-03T11:20:00Z,26.4040,-90.7920,3.0,11.0,100.0,14.0, 
ADCP,ioos:station:wmo:42395:2,2017-10-03T12:20:00Z,26.4040,-90.7920,3.0,10.0,100.0,13.0, 
ADCP,ioos:station:wmo:42395:2,2017-10-03T13:20:00Z,26.4040,-90.7920,3.0,9.0,100.0,12.0, 
ADCP,ioos:station:wmo:42395:2,2017-10-03T14:40:00Z,26.4040,-90.7920,3.0,9.0,90.0,11.0, 
ADCP,ioos:station:wmo:42395:2,2017-10-03T15:40:00Z,26.4040,-90.7920,3.0,9.0,90.0,12.0, 
ADCP,ioos:station:wmo:42395:2,2017-10-03T17:20:00Z,26.4040,-90.7920,3.0,12.0,80.0,17.0, 
ADCP,ioos:station:wmo:42395:2,2017-10-03T18:20:00Z,26.4040,-90.7920,3.0,11.0,90.0,15.0, 
ADCP,ioos:station:wmo:42395:2,2017-10-03T19:20:00Z,26.4040,-90.7920,3.0,11.0,90.0,15.0, 
ADCP,ioos:station:wmo:42395:2,2017-10-03T20:20:00Z,26.4040,-90.7920,3.0,11.0,90.0,14.0, 
ADCP,ioos:station:wmo:42395:2,2017-10-03T21:40:00Z,26.4040,-90.7920,3.0,11.4,77.0,14.0, 
ADCP,ioos:station:wmo:42395:2,2017-10-03T22:40:00Z,26.4040,-90.7920,3.0,11.0,70.0,14.0, 
ADCP,ioos:station:wmo:42395:2,2017-10-04T00:20:00Z,26.4040,-90.7920,3.0,11.0,70.0,15.0, 
ADCP,ioos:station:wmo:42395:2,2017-10-04T01:20:00Z,26.4040,-90.7920,3.0,11.0,60.0,15.0, 
ADCP,ioos:station:wmo:42395:2,2017-10-04T02:20:00Z,26.4040,-90.7920,3.0,11.0,70.0,14.0, 
ADCP,ioos:station:wmo:42395:2,2017-10-04T03:20:00Z,26.4040,-90.7920,3.0,11.0,60.0,14.0, 
ADCP,ioos:station:wmo:42395:2,2017-10-04T04:40:00Z,26.4040,-90.7920,3.0,12.0,70.0,15.0, 
ADCP,ioos:station:wmo:42395:2,2017-10-04T05:40:00Z,26.4040,-90.7920,3.0,11.0,70.0,14.0, 
ADCP,ioos:station:wmo:42395:2,2017-10-04T07:20:00Z,26.4040,-90.7920,3.0,11.0,60.0,15.0, 
ADCP,ioos:station:wmo:42395:2,2017-10-04T08:20:00Z,26.4040,-90.7920,3.0,11.6,60.0,14.7, 
ADCP,ioos:station:wmo:42395:2,2017-10-04T09:20:00Z,26.4040,-90.7920,3.0,12.0,60.0,16.0, 
ADCP,ioos:station:wmo:42395:2,2017-10-04T10:20:00Z,26.4040,-90.7920,3.0,10.0,60.0,13.0, 
ADCP,ioos:station:wmo:42395:2,2017-10-04T11:40:00Z,26.4040,-90.7920,3.0,11.0,60.0,13.0, 
ADCP,ioos:station:wmo:42395:2,2017-10-04T13:00:00Z,26.4040,-90.7920,3.0,10.0,80.0,14.0, 
ADCP,ioos:station:wmo:42395:2,2017-10-04T14:20:00Z,26.4040,-90.7920,3.0,12.0,70.0,15.0, 
ADCP,ioos:station:wmo:42395:2,2017-10-04T15:20:00Z,26.4040,-90.7920,3.0,11.0,70.0,14.0, 
ADCP,ioos:station:wmo:42395:2,2017-10-04T16:20:00Z,26.4040,-90.7920,3.0,12.0,60.0,16.0, 
ADCP,ioos:station:wmo:42395:2,2017-10-04T17:40:00Z,26.4040,-90.7920,3.0,12.0,70.0,16.0, 
ADCP,ioos:station:wmo:42395:2,2017-10-04T18:40:00Z,26.4040,-90.7920,3.0,12.0,90.0,18.0, 
ADCP,ioos:station:wmo:42395:2,2017-10-04T20:00:00Z,26.4040,-90.7920,3.0,12.0,80.0,15.0, 
ADCP,ioos:station:wmo:42395:2,2017-10-04T21:20:00Z,26.4040,-90.7920,3.0,12.0,70.0,18.0, 
ADCP,ioos:station:wmo:42395:2,2017-10-04T22:20:00Z,26.4040,-90.7920,3.0,12.0,70.0,17.0, 
ADCP,ioos:station:wmo:42395:2,2017-10-04T23:20:00Z,26.4040,-90.7920,3.0,12.0,60.0,16.0, 
ADCP,ioos:station:wmo:42395:2,2017-10-05T00:40:00Z,26.4040,-90.7920,3.0,12.0,70.0,15.0, 
ADCP,ioos:station:wmo:42395:2,2017-10-05T01:40:00Z,26.4040,-90.7920,3.0,12.0,70.0,15.0, 
ADCP,ioos:station:wmo:42395:2,2017-10-05T03:00:00Z,26.4040,-90.7920,3.0,12.0,50.0,15.0, 
ADCP,ioos:station:wmo:42395:2,2017-10-05T04:20:00Z,26.4040,-90.7920,3.0,11.0,50.0,15.0, 
ADCP,ioos:station:wmo:42395:2,2017-10-05T05:20:00Z,26.4040,-90.7920,3.0,11.0,60.0,15.0, 
ADCP,ioos:station:wmo:42395:2,2017-10-05T06:20:00Z,26.4040,-90.7920,3.0,11.0,50.0,14.0, 
ADCP,ioos:station:wmo:42395:2,2017-10-05T07:40:00Z,26.4040,-90.7920,3.0,10.0,60.0,12.0, 
ADCP,ioos:station:wmo:42395:2,2017-10-05T08:40:00Z,26.4040,-90.7920,3.0,9.0,60.0,13.0, 
ADCP,ioos:station:wmo:42395:2,2017-10-05T10:00:00Z,26.4040,-90.7920,3.0,8.0,60.0,11.0, 
ADCP,ioos:station:wmo:42395:2,2017-10-05T11:20:00Z,26.4040,-90.7920,3.0,8.0,40.0,11.0, 
ADCP,ioos:station:wmo:42395:2,2017-10-05T12:20:00Z,26.4040,-90.7920,3.0,8.0,50.0,10.0, 
ADCP,ioos:station:wmo:42395:2,2017-10-05T13:20:00Z,26.4040,-90.7920,3.0,8.0,30.0,10.0, 
ADCP,ioos:station:wmo:42395:2,2017-10-05T14:40:00Z,26.4040,-90.7920,3.0,10.0,60.0,12.0, 
ADCP,ioos:station:wmo:42395:2,2017-10-05T15:40:00Z,26.4040,-90.7920,3.0,12.0,50.0,14.0, 
ADCP,ioos:station:wmo:42395:2,2017-10-05T17:20:00Z,26.4040,-90.7920,3.0,10.0,50.0,12.0, 
ADCP,ioos:station:wmo:42395:2,2017-10-05T18:20:00Z,26.4040,-90.7920,3.0,9.0,60.0,12.0, 
ADCP,ioos:station:wmo:42395:2,2017-10-05T19:20:00Z,26.4040,-90.7920,3.0,10.0,50.0,13.0, 
ADCP,ioos:station:wmo:42395:2,2017-10-05T20:20:00Z,26.4040,-90.7920,3.0,10.0,60.0,13.0, 
ADCP,ioos:station:wmo:42395:2,2017-10-05T21:40:00Z,26.4040,-90.7920,3.0,9.0,70.0,12.0, 
ADCP,ioos:station:wmo:42395:2,2017-10-05T22:40:00Z,26.4040,-90.7920,3.0,9.0,50.0,11.0, 
ADCP,ioos:station:wmo:42395:2,2017-10-05T23:40:00Z,26.4040,-90.7920,3.0,10.0,50.0,13.0, 
ADCP,ioos:station:wmo:42395:2,2017-10-06T00:20:00Z,26.4040,-90.7920,3.0,11.0,50.0,14.0, 
ADCP,ioos:station:wmo:42395:2,2017-10-06T01:20:00Z,26.4040,-90.7920,3.0,11.0,50.0,14.0, 
ADCP,ioos:station:wmo:42395:2,2017-10-06T02:20:00Z,26.4040,-90.7920,3.0,12.0,40.0,14.0, 
ADCP,ioos:station:wmo:42395:2,2017-10-06T03:20:00Z,26.4040,-90.7920,3.0,11.0,40.0,14.0, 
ADCP,ioos:station:wmo:42395:2,2017-10-06T04:40:00Z,26.4040,-90.7920,3.0,10.0,30.0,13.0, 
ADCP,ioos:station:wmo:42395:2,2017-10-06T05:40:00Z,26.4040,-90.7920,3.0,9.0,30.0,12.0, 
ADCP,ioos:station:wmo:42395:2,2017-10-06T07:20:00Z,26.4040,-90.7920,3.0,9.0,20.0,11.0, 
ADCP,ioos:station:wmo:42395:2,2017-10-06T08:20:00Z,26.4040,-90.7920,3.0,10.0,20.0,12.0, 
ADCP,ioos:station:wmo:42395:2,2017-10-06T09:20:00Z,26.4040,-90.7920,3.0,9.0,10.0,12.0, 
ADCP,ioos:station:wmo:42395:2,2017-10-06T10:20:00Z,26.4040,-90.7920,3.0,10.0,10.0,13.0, 
ADCP,ioos:station:wmo:42395:2,2017-10-06T11:40:00Z,26.4040,-90.7920,3.0,11.0,10.0,13.0, 
ADCP,ioos:station:wmo:42395:2,2017-10-06T12:40:00Z,26.4040,-90.7920,3.0,11.0,360.0,14.0, 
ADCP,ioos:station:wmo:42395:2,2017-10-06T14:20:00Z,26.4040,-90.7920,3.0,12.0,10.0,16.0, 
ADCP,ioos:station:wmo:42395:2,2017-10-06T15:20:00Z,26.4040,-90.7920,3.0,11.0,360.0,14.0, 
ADCP,ioos:station:wmo:42395:2,2017-10-06T16:20:00Z,26.4040,-90.7920,3.0,11.0,10.0,14.0, 
ADCP,ioos:station:wmo:42395:2,2017-10-06T17:20:00Z,26.4040,-90.7920,3.0,11.0,360.0,13.0, 
ADCP,ioos:station:wmo:42395:2,2017-10-06T18:40:00Z,26.4040,-90.7920,3.0,9.0,360.0,12.0, 
ADCP,ioos:station:wmo:42395:2,2017-10-06T19:40:00Z,26.4040,-90.7920,3.0,10.0,350.0,13.0, 
ADCP,ioos:station:wmo:42395:2,2017-10-06T21:20:00Z,26.4040,-90.7920,3.0,8.0,350.0,11.0, 
ADCP,ioos:station:wmo:42395:2,2017-10-06T22:20:00Z,26.4040,-90.7920,3.0,5.0,50.0,7.0, 
ADCP,ioos:station:wmo:42395:2,2017-10-06T23:20:00Z,26.4040,-90.7920,3.0,9.0,100.0,12.0, 
ADCP,ioos:station:wmo:42395:2,2017-10-07T00:20:00Z,26.4040,-90.7920,3.0,10.0,100.0,13.0, 
ADCP,ioos:station:wmo:42395:2,2017-10-07T01:40:00Z,26.4040,-90.7920,3.0,9.0,90.0,11.0, 
ADCP,ioos:station:wmo:42395:2,2017-10-07T02:40:00Z,26.4040,-90.7920,3.0,8.0,90.0,11.0, 
ADCP,ioos:station:wmo:42395:2,2017-10-07T04:20:00Z,26.4040,-90.7920,3.0,7.0,80.0,9.0, 
ADCP,ioos:station:wmo:42395:2,2017-10-07T05:20:00Z,26.4040,-90.7920,3.0,8.0,80.0,11.0, 
ADCP,ioos:station:wmo:42395:2,2017-10-07T06:20:00Z,26.4040,-90.7920,3.0,8.0,60.0,10.0, 
ADCP,ioos:station:wmo:42395:2,2017-10-07T07:20:00Z,26.4040,-90.7920,3.0,5.0,60.0,7.0, 
ADCP,ioos:station:wmo:42395:2,2017-10-07T08:40:00Z,26.4040,-90.7920,3.0,6.0,80.0,8.0, 
ADCP,ioos:station:wmo:42395:2,2017-10-07T09:40:00Z,26.4040,-90.7920,3.0,6.0,80.0,7.0, 
ADCP,ioos:station:wmo:42395:2,2017-10-07T11:20:00Z,26.4040,-90.7920,3.0,5.0,70.0,7.0, 
ADCP,ioos:station:wmo:42395:2,2017-10-07T12:20:00Z,26.4040,-90.7920,3.0,6.0,70.0,8.0, 
ADCP,ioos:station:wmo:42395:2,2017-10-07T13:20:00Z,26.4040,-90.7920,3.0,6.0,90.0,7.0, 
ADCP,ioos:station:wmo:42395:2,2017-10-07T14:20:00Z,26.4040,-90.7920,3.0,3.0,100.0,5.0, 
ADCP,ioos:station:wmo:42395:2,2017-10-07T15:40:00Z,26.4040,-90.7920,3.0,2.0,100.0,5.0, 
ADCP,ioos:station:wmo:42395:2,2017-10-07T16:40:00Z,26.4040,-90.7920,3.0,4.0,220.0,6.0, 
ADCP,ioos:station:wmo:42395:2,2017-10-07T18:20:00Z,26.4040,-90.7920,3.0,3.0,320.0,4.0, 
ADCP,ioos:station:wmo:42395:2,2017-10-07T19:20:00Z,26.4040,-90.7920,3.0,2.0,250.0,5.0, 
ADCP,ioos:station:wmo:42395:2,2017-10-07T20:20:00Z,26.4040,-90.7920,3.0,3.0,240.0,5.0, 
ADCP,ioos:station:wmo:42395:2,2017-10-07T21:20:00Z,26.4040,-90.7920,3.0,4.0,240.0,7.0, 
ADCP,ioos:station:wmo:42395:2,2017-10-07T22:40:00Z,26.4040,-90.7920,3.0,4.0,210.0,6.0, 
ADCP,ioos:station:wmo:42395:2,2017-10-08T00:00:00Z,26.4040,-90.7920,3.0,4.0,190.0,6.0, 
ADCP,ioos:station:wmo:42395:2,2017-10-08T01:20:00Z,26.4040,-90.7920,3.0,7.0,180.0,8.0, 
ADCP,ioos:station:wmo:42395:2,2017-10-08T02:20:00Z,26.4040,-90.7920,3.0,6.0,180.0,8.0, 
ADCP,ioos:station:wmo:42395:2,2017-10-08T03:20:00Z,26.4040,-90.7920,3.0,4.0,160.0,5.0, 
ADCP,ioos:station:wmo:42395:2,2017-10-08T04:40:00Z,26.4040,-90.7920,3.0,3.0,170.0,4.0, 
ADCP,ioos:station:wmo:42395:2,2017-10-08T05:40:00Z,26.4040,-90.7920,3.0,2.0,260.0,3.0, 
ADCP,ioos:station:wmo:42395:2,2017-10-08T07:00:00Z,26.4040,-90.7920,3.0,5.0,240.0,7.0, 
ADCP,ioos:station:wmo:42395:2,2017-10-08T08:20:00Z,26.4040,-90.7920,3.0,6.0,240.0,7.0, 
ADCP,ioos:station:wmo:42395:2,2017-10-08T09:20:00Z,26.4040,-90.7920,3.0,7.0,190.0,10.0, 
ADCP,ioos:station:wmo:42395:2,2017-10-08T10:20:00Z,26.4040,-90.7920,3.0,12.0,200.0,15.0, 
ADCP,ioos:station:wmo:42395:2,2017-10-08T11:40:00Z,26.4040,-90.7920,3.0,9.0,210.0,11.0, 
ADCP,ioos:station:wmo:42395:2,2017-10-08T12:40:00Z,26.4040,-90.7920,3.0,9.0,200.0,11.0, 
ADCP,ioos:station:wmo:42395:2,2017-10-08T13:40:00Z,26.4040,-90.7920,3.0,10.0,220.0,13.0, 
ADCP,ioos:station:wmo:42395:2,2017-10-08T15:20:00Z,26.4040,-90.7920,3.0,11.0,200.0,14.0, 
ADCP,ioos:station:wmo:42395:2,2017-10-08T16:20:00Z,26.4040,-90.7920,3.0,11.0,220.0,14.0, 
ADCP,ioos:station:wmo:42395:2,2017-10-08T17:20:00Z,26.4040,-90.7920,3.0,9.0,250.0,12.0, 
ADCP,ioos:station:wmo:42395:2,2017-10-08T18:40:00Z,26.4040,-90.7920,3.0,10.0,210.0,12.0, 
ADCP,ioos:station:wmo:42395:2,2017-10-08T19:40:00Z,26.4040,-90.7920,3.0,9.0,220.0,12.0, 
ADCP,ioos:station:wmo:42395:2,2017-10-08T21:00:00Z,26.4040,-90.7920,3.0,8.0,220.0,10.0, 
ADCP,ioos:station:wmo:42395:2,2017-10-08T22:20:00Z,26.4040,-90.7920,3.0,8.0,220.0,10.0, 
ADCP,ioos:station:wmo:42395:2,2017-10-08T23:20:00Z,26.4040,-90.7920,3.0,8.0,220.0,10.0, 
ADCP,ioos:station:wmo:42395:2,2017-10-09T00:20:00Z,26.4040,-90.7920,3.0,7.0,210.0,9.0, 
ADCP,ioos:station:wmo:42395:2,2017-10-09T01:40:00Z,26.4040,-90.7920,3.0,7.0,200.0,8.0, 
ADCP,ioos:station:wmo:42395:2,2017-10-09T02:40:00Z,26.4040,-90.7920,3.0,7.0,200.0,8.0, 
ADCP,ioos:station:wmo:42395:2,2017-10-09T04:20:00Z,26.4040,-90.7920,3.0,7.0,200.0,9.0, 
ADCP,ioos:station:wmo:42395:2,2017-10-09T05:20:00Z,26.4040,-90.7920,3.0,6.0,180.0,8.0, 
ADCP,ioos:station:wmo:42395:2,2017-10-09T05:40:00Z,26.4040,-90.7920,3.0,5.6,190.0,7.2, 
ADCP,ioos:station:wmo:42395:2,2017-10-09T06:20:00Z,26.4040,-90.7920,3.0,5.0,180.0,7.0, 
ADCP,ioos:station:wmo:42395:2,2017-10-09T07:20:00Z,26.4040,-90.7920,3.0,6.0,170.0,8.0, 
ADCP,ioos:station:wmo:42395:2,2017-10-09T08:40:00Z,26.4040,-90.7920,3.0,5.0,160.0,7.0, 
ADCP,ioos:station:wmo:42395:2,2017-10-09T09:40:00Z,26.4040,-90.7920,3.0,7.0,150.0,8.0, 
ADCP,ioos:station:wmo:42395:2,2017-10-09T11:20:00Z,26.4040,-90.7920,3.0,7.0,150.0,8.0, 
ADCP,ioos:station:wmo:42395:2,2017-10-09T12:20:00Z,26.4040,-90.7920,3.0,7.0,140.0,9.0, 
ADCP,ioos:station:wmo:42395:2,2017-10-09T13:20:00Z,26.4040,-90.7920,3.0,7.0,140.0,9.0, 
ADCP,ioos:station:wmo:42395:2,2017-10-09T14:20:00Z,26.4040,-90.7920,3.0,7.0,140.0,8.0, 
ADCP,ioos:station:wmo:42395:2,2017-10-09T15:40:00Z,26.4040,-90.7920,3.0,7.0,140.0,9.0, 
ADCP,ioos:station:wmo:42395:2,2017-10-09T16:40:00Z,26.4040,-90.7920,3.0,7.0,130.0,9.0, 
ADCP,ioos:station:wmo:42395:2,2017-10-09T18:20:00Z,26.4040,-90.7920,3.0,6.0,130.0,8.0, 
ADCP,ioos:station:wmo:42395:2,2017-10-09T19:20:00Z,26.4040,-90.7920,3.0,5.0,130.0,7.0, 
ADCP,ioos:station:wmo:42395:2,2017-10-09T20:20:00Z,26.4040,-90.7920,3.0,5.0,130.0,7.0, 
ADCP,ioos:station:wmo:42395:2,2017-10-09T21:20:00Z,26.4040,-90.7920,3.0,5.0,130.0,6.0, 
ADCP,ioos:station:wmo:42395:2,2017-10-09T22:40:00Z,26.4040,-90.7920,3.0,5.0,110.0,7.0, 
ADCP,ioos:station:wmo:42395:2,2017-10-09T23:40:00Z,26.4040,-90.7920,3.0,6.0,100.0,7.0, 
ADCP,ioos:station:wmo:42395:2,2017-10-10T01:20:00Z,26.4040,-90.7920,3.0,7.0,100.0,8.0, 
ADCP,ioos:station:wmo:42395:2,2017-10-10T02:20:00Z,26.4040,-90.7920,3.0,7.0,100.0,8.0, 
ADCP,ioos:station:wmo:42395:2,2017-10-10T03:20:00Z,26.4040,-90.7920,3.0,8.0,90.0,10.0, 
ADCP,ioos:station:wmo:42395:2,2017-10-10T04:20:00Z,26.4040,-90.7920,3.0,7.0,100.0,9.0, 
ADCP,ioos:station:wmo:42395:2,2017-10-10T05:40:00Z,26.4040,-90.7920,3.0,7.0,100.0,9.0, 
ADCP,ioos:station:wmo:42395:2,2017-10-10T07:00:00Z,26.4040,-90.7920,3.0,6.0,90.0,8.0, 
ADCP,ioos:station:wmo:42395:2,2017-10-10T08:20:00Z,26.4040,-90.7920,3.0,6.0,110.0,7.0, 
ADCP,ioos:station:wmo:42395:2,2017-10-10T09:20:00Z,26.4040,-90.7920,3.0,6.0,100.0,7.0, 
ADCP,ioos:station:wmo:42395:2,2017-10-10T10:20:00Z,26.4040,-90.7920,3.0,6.0,100.0,7.0, 
ADCP,ioos:station:wmo:42395:2,2017-10-10T11:40:00Z,26.4040,-90.7920,3.0,7.0,110.0,9.0, 
ADCP,ioos:station:wmo:42395:2,2017-10-10T12:40:00Z,26.4040,-90.7920,3.0,6.0,110.0,8.0, 
ADCP,ioos:station:wmo:42395:2,2017-10-23T19:20:00Z,26.4040,-90.7920,3.0,2.0,50.0,5.0, 
ADCP,ioos:station:wmo:42395:2,2017-10-23T20:40:00Z,26.4040,-90.7920,3.0,1.0,190.0,4.0, 
ADCP,ioos:station:wmo:42395:2,2017-10-23T21:40:00Z,26.4040,-90.7920,3.0,1.8,231.0,3.6, 
ADCP,ioos:station:wmo:42395:2,2017-10-23T23:00:00Z,26.4040,-90.7920,3.0,1.0,220.0,2.0, 
ADCP,ioos:station:wmo:42395:2,2017-10-24T00:20:00Z,26.4040,-90.7920,3.0,0.0,-9999.0,3.0, 
ADCP,ioos:station:wmo:42395:2,2017-10-24T01:20:00Z,26.4040,-90.7920,3.0,1.0,230.0,3.0, 
ADCP,ioos:station:wmo:42395:2,2017-10-24T02:20:00Z,26.4040,-90.7920,3.0,1.0,90.0,3.0, 
ADCP,ioos:station:wmo:42395:2,2017-10-24T03:40:00Z,26.4040,-90.7920,3.0,0.0,-9999.0,3.0, 
ADCP,ioos:station:wmo:42395:2,2017-10-24T04:40:00Z,26.4040,-90.7920,3.0,1.0,90.0,5.0, 
ADCP,ioos:station:wmo:42395:2,2017-10-24T06:00:00Z,26.4040,-90.7920,3.0,0.0,-9999.0,2.0, 
ADCP,ioos:station:wmo:42395:2,2017-10-24T07:20:00Z,26.4040,-90.7920,3.0,1.0,90.0,5.0, 
ADCP,ioos:station:wmo:42395:2,2017-10-24T08:20:00Z,26.4040,-90.7920,3.0,2.0,80.0,5.0, 
ADCP,ioos:station:wmo:42395:2,2017-10-24T09:20:00Z,26.4040,-90.7920,3.0,2.0,80.0,5.0, 
ADCP,ioos:station:wmo:42395:2,2017-10-24T11:00:00Z,26.4040,-90.7920,3.0,2.0,30.0,4.0, 
ADCP,ioos:station:wmo:42395:2,2017-10-24T11:40:00Z,26.4040,-90.7920,3.0,3.0,20.0,4.0, 
ADCP,ioos:station:wmo:42395:2,2017-10-24T13:00:00Z,26.4040,-90.7920,3.0,4.0,30.0,7.0, 
ADCP,ioos:station:wmo:42395:2,2017-10-24T14:20:00Z,26.4040,-90.7920,3.0,4.0,20.0,9.0, 
ADCP,ioos:station:wmo:42395:2,2017-10-24T15:20:00Z,26.4040,-90.7920,3.0,6.0,10.0,8.0, 
ADCP,ioos:station:wmo:42395:2,2017-10-24T16:20:00Z,26.4040,-90.7920,3.0,11.0,10.0,14.0, 
ADCP,ioos:station:wmo:42395:2,2017-10-24T17:40:00Z,26.4040,-90.7920,3.0,11.0,360.0,14.0, 
ADCP,ioos:station:wmo:42395:2,2017-10-24T18:40:00Z,26.4040,-90.7920,3.0,11.0,360.0,13.0, 
ADCP,ioos:station:wmo:42395:2,2017-10-24T20:20:00Z,26.4040,-90.7920,3.0,9.0,340.0,12.0, 
ADCP,ioos:station:wmo:42395:2,2017-10-24T21:20:00Z,26.4040,-90.7920,3.0,12.0,350.0,15.0, 
ADCP,ioos:station:wmo:42395:2,2017-10-24T22:20:00Z,26.4040,-90.7920,3.0,12.0,350.0,16.0, 
ADCP,ioos:station:wmo:42395:2,2017-10-24T23:20:00Z,26.4040,-90.7920,3.0,12.0,350.0,15.0, 
ADCP,ioos:station:wmo:42395:2,2017-10-25T00:40:00Z,26.4040,-90.7920,3.0,11.0,340.0,15.0, 
ADCP,ioos:station:wmo:42395:2,2017-10-25T01:40:00Z,26.4040,-90.7920,3.0,11.0,340.0,15.0, 
ADCP,ioos:station:wmo:42395:2,2017-10-25T03:20:00Z,26.4040,-90.7920,3.0,11.0,350.0,16.0, 
ADCP,ioos:station:wmo:42395:2,2017-10-25T04:20:00Z,26.4040,-90.7920,3.0,11.0,350.0,15.0, 
ADCP,ioos:station:wmo:42395:2,2017-10-25T05:20:00Z,26.4040,-90.7920,3.0,11.0,350.0,16.0, 
ADCP,ioos:station:wmo:42395:2,2017-10-25T06:20:00Z,26.4040,-90.7920,3.0,12.0,340.0,17.0, 
ADCP,ioos:station:wmo:42395:2,2017-10-25T07:40:00Z,26.4040,-90.7920,3.0,11.0,340.0,15.0, 
ADCP,ioos:station:wmo:42395:2,2017-10-25T08:40:00Z,26.4040,-90.7920,3.0,10.0,330.0,-9999.0, 
ADCP,ioos:station:wmo:42395:2,2017-10-25T10:20:00Z,26.4040,-90.7920,3.0,12.0,330.0,16.0, 
ADCP,ioos:station:wmo:42395:2,2017-10-25T11:20:00Z,26.4040,-90.7920,3.0,11.0,340.0,15.0, 
ADCP,ioos:station:wmo:42395:2,2017-10-25T12:20:00Z,26.4040,-90.7920,3.0,11.0,340.0,15.0, 
ADCP,ioos:station:wmo:42395:2,2017-10-25T13:40:00Z,26.4040,-90.7920,3.0,11.0,330.0,15.0, 
ADCP,ioos:station:wmo:42395:2,2017-10-25T14:40:00Z,26.4040,-90.7920,3.0,11.0,340.0,13.0, 
ADCP,ioos:station:wmo:42395:2,2017-10-25T16:00:00Z,26.4040,-90.7920,3.0,9.0,340.0,12.0, 
ADCP,ioos:station:wmo:42395:2,2017-10-25T17:20:00Z,26.4040,-90.7920,3.0,9.0,340.0,13.0, 
ADCP,ioos:station:wmo:42395:2,2017-10-25T18:20:00Z,26.4040,-90.7920,3.0,9.0,340.0,13.0, 
ADCP,ioos:station:wmo:42395:2,2017-10-25T19:20:00Z,26.4040,-90.7920,3.0,9.0,340.0,12.0, 
ADCP,ioos:station:wmo:42395:2,2017-10-25T20:40:00Z,26.4040,-90.7920,3.0,8.0,340.0,12.0, 
ADCP,ioos:station:wmo:42395:2,2017-10-25T21:40:00Z,26.4040,-90.7920,3.0,8.1,333.0,11.4, 
ADCP,ioos:station:wmo:42395:2,2017-10-25T23:00:00Z,26.4040,-90.7920,3.0,7.0,340.0,11.0, 
ADCP,ioos:station:wmo:42395:2,2017-10-26T00:20:00Z,26.4040,-90.7920,3.0,8.0,320.0,12.0, 
ADCP,ioos:station:wmo:42395:2,2017-10-26T01:20:00Z,26.4040,-90.7920,3.0,8.0,320.0,11.0, 
ADCP,ioos:station:wmo:42395:2,2017-10-26T02:20:00Z,26.4040,-90.7920,3.0,7.0,330.0,11.0, 
ADCP,ioos:station:wmo:42395:2,2017-10-26T03:40:00Z,26.4040,-90.7920,3.0,5.0,330.0,8.0, 
ADCP,ioos:station:wmo:42395:2,2017-10-26T04:40:00Z,26.4040,-90.7920,3.0,5.0,330.0,7.0, 
ADCP,ioos:station:wmo:42395:2,2017-10-26T06:20:00Z,26.4040,-90.7920,3.0,5.0,330.0,7.0, 
ADCP,ioos:station:wmo:42395:2,2017-10-26T07:20:00Z,26.4040,-90.7920,3.0,4.0,350.0,7.0, 
ADCP,ioos:station:wmo:42395:2,2017-10-26T08:20:00Z,26.4040,-90.7920,3.0,5.0,330.0,7.0, 
ADCP,ioos:station:wmo:42395:2,2017-10-26T09:20:00Z,26.4040,-90.7920,3.0,3.0,340.0,6.0, 
ADCP,ioos:station:wmo:42395:2,2017-10-26T10:40:00Z,26.4040,-90.7920,3.0,4.0,350.0,6.0, 
ADCP,ioos:station:wmo:42395:2,2017-10-26T11:40:00Z,26.4040,-90.7920,3.0,4.0,340.0,6.0, 
ADCP,ioos:station:wmo:42395:2,2017-10-26T13:20:00Z,26.4040,-90.7920,3.0,3.0,360.0,6.0, 
ADCP,ioos:station:wmo:42395:2,2017-10-26T14:20:00Z,26.4040,-90.7920,3.0,2.0,350.0,4.0, 
ADCP,ioos:station:wmo:42395:2,2017-10-26T15:20:00Z,26.4040,-90.7920,3.0,2.0,360.0,3.0, 
ADCP,ioos:station:wmo:42395:2,2017-10-26T16:20:00Z,26.4040,-90.7920,3.0,2.0,50.0,4.0, 
ADCP,ioos:station:wmo:42395:2,2017-10-26T17:40:00Z,26.4040,-90.7920,3.0,3.0,60.0,-9999.0, 
ADCP,ioos:station:wmo:42395:2,2017-10-26T18:40:00Z,26.4040,-90.7920,3.0,1.0,90.0,2.0, 
ADCP,ioos:station:wmo:42395:2,2017-10-26T20:20:00Z,26.4040,-90.7920,3.0,3.0,130.0,4.0, 
ADCP,ioos:station:wmo:42395:2,2017-10-26T21:20:00Z,26.4040,-90.7920,3.0,3.6,101.0,5.1, 
ADCP,ioos:station:wmo:42395:2,2017-10-26T22:20:00Z,26.4040,-90.7920,3.0,4.1,127.0,5.7, 
ADCP,ioos:station:wmo:42395:2,2017-10-26T23:20:00Z,26.4040,-90.7920,3.0,4.5,139.0,7.3, 
ADCP,ioos:station:wmo:42395:2,2017-10-27T01:00:00Z,26.4040,-90.7920,3.0,5.6,152.0,8.2, 
ADCP,ioos:station:wmo:42395:2,2017-10-27T01:40:00Z,26.4040,-90.7920,3.0,6.1,157.0,8.4, 
ADCP,ioos:station:wmo:42395:2,2017-10-27T03:20:00Z,26.4040,-90.7920,3.0,7.0,160.0,9.7, 
ADCP,ioos:station:wmo:42395:2,2017-10-27T04:20:00Z,26.4040,-90.7920,3.0,7.1,156.0,11.2, 
ADCP,ioos:station:wmo:42395:2,2017-10-27T05:20:00Z,26.4040,-90.7920,3.0,7.7,152.0,11.8, 
ADCP,ioos:station:wmo:42395:2,2017-10-27T06:40:00Z,26.4040,-90.7920,3.0,8.0,159.0,11.7, 